Radiation Dose at Monitoring Post of Fukushima Daini Nuclear Power Station
Date,Time,MP-1(microSv/h),MP-2(microSv/h),MP-3(microSv/h),MP-4(microSv/h),MP-5(microSv/h),MP-6(microSv/h),MP-7(microSv/h),Wind Direction,Wind Velocity(m/s),Rain
2024/01/17,00:00,0.150,0.135,0.212,0.200,0.208,0.121,0.077,north-northwest,2.2,No
2024/01/17,00:10,0.149,0.135,0.211,0.201,0.208,0.120,0.077,northwest,2.6,No
2024/01/17,00:20,0.149,0.135,0.211,0.201,0.207,0.121,0.077,north-northwest,1.5,No
2024/01/17,00:30,0.150,0.135,0.212,0.202,0.207,0.120,0.077,north,1.9,No
2024/01/17,00:40,0.149,0.135,0.211,0.200,0.208,0.121,0.078,north,2.4,No
2024/01/17,00:50,0.149,0.135,0.211,0.202,0.208,0.120,0.078,north,3.9,No
2024/01/17,01:00,0.148,0.135,0.212,0.201,0.208,0.120,0.077,north-northwest,2.5,No
2024/01/17,01:10,0.150,0.136,0.211,0.201,0.207,0.120,0.077,north,1.6,No
2024/01/17,01:20,0.148,0.135,0.212,0.201,0.207,0.120,0.077,north-northeast,1.2,No
2024/01/17,01:30,0.149,0.135,0.212,0.201,0.208,0.120,0.077,north-northeast,1.0,No
2024/01/17,01:40,0.149,0.135,0.213,0.201,0.207,0.120,0.076,east-northeast,1.0,No
2024/01/17,01:50,0.150,0.135,0.212,0.201,0.208,0.120,0.077,east-southeast,1.1,No
2024/01/17,02:00,0.149,0.136,0.211,0.201,0.206,0.120,0.077,east-southeast,1.4,No
2024/01/17,02:10,0.149,0.136,0.211,0.201,0.207,0.121,0.077,east-southeast,1.1,No
2024/01/17,02:20,0.149,0.135,0.212,0.201,0.208,0.120,0.077,south-southeast,2.0,No
2024/01/17,02:30,0.150,0.134,0.211,0.201,0.207,0.121,0.077,southeast,2.0,No
2024/01/17,02:40,0.149,0.136,0.211,0.202,0.208,0.120,0.077,southeast,2.0,No
2024/01/17,02:50,0.150,0.135,0.211,0.202,0.207,0.121,0.078,southeast,1.7,No
2024/01/17,03:00,0.149,0.135,0.212,0.202,0.208,0.120,0.077,-,CALM,No
2024/01/17,03:10,0.149,0.134,0.212,0.200,0.208,0.120,0.077,-,CALM,No
2024/01/17,03:20,0.149,0.135,0.211,0.200,0.207,0.120,0.078,northeast,1.2,No
2024/01/17,03:30,0.149,0.135,0.211,0.200,0.208,0.121,0.078,east-northeast,0.7,No
2024/01/17,03:40,0.149,0.134,0.212,0.200,0.207,0.120,0.077,east-northeast,0.9,No
2024/01/17,03:50,0.149,0.135,0.211,0.202,0.208,0.120,0.077,east-northeast,0.9,No
2024/01/17,04:00,0.149,0.135,0.212,0.201,0.207,0.120,0.077,north,0.7,No
2024/01/17,04:10,0.149,0.135,0.212,0.201,0.207,0.120,0.077,-,CALM,No
2024/01/17,04:20,0.149,0.135,0.212,0.201,0.207,0.120,0.077,-,CALM,No
2024/01/17,04:30,0.149,0.135,0.210,0.202,0.208,0.120,0.077,east-northeast,0.7,No
2024/01/17,04:40,0.150,0.136,0.213,0.202,0.207,0.120,0.077,north,1.3,No
2024/01/17,04:50,0.150,0.135,0.211,0.200,0.207,0.120,0.077,north-northeast,0.7,No
2024/01/17,05:00,0.149,0.135,0.213,0.202,0.208,0.120,0.077,-,CALM,No
2024/01/17,05:10,0.149,0.135,0.211,0.200,0.207,0.120,0.077,north-northwest,1.8,No
2024/01/17,05:20,0.149,0.134,0.211,0.201,0.208,0.121,0.077,-,CALM,No
2024/01/17,05:30,0.149,0.135,0.212,0.200,0.207,0.120,0.077,west-northwest,1.2,No
2024/01/17,05:40,0.150,0.135,0.212,0.202,0.206,0.120,0.077,west,2.0,No
2024/01/17,05:50,0.149,0.135,0.212,0.202,0.207,0.120,0.078,west-northwest,3.0,No
2024/01/17,06:00,0.149,0.136,0.210,0.201,0.207,0.121,0.077,-,CALM,No
2024/01/17,06:10,0.149,0.134,0.212,0.202,0.207,0.120,0.077,west-southwest,1.2,No
2024/01/17,06:20,0.150,0.135,0.212,0.201,0.208,0.120,0.077,-,CALM,No
2024/01/17,06:30,0.150,0.135,0.211,0.201,0.205,0.120,0.077,southwest,0.7,No
2024/01/17,06:40,0.149,0.135,0.211,0.200,0.207,0.120,0.077,west,2.9,No
2024/01/17,06:50,0.149,0.135,0.212,0.201,0.208,0.120,0.077,west,5.2,No
2024/01/17,07:00,0.149,0.135,0.211,0.202,0.207,0.119,0.077,west,4.1,No
2024/01/17,07:10,0.148,0.134,0.212,0.201,0.207,0.121,0.077,west,3.5,No
2024/01/17,07:20,0.150,0.135,0.211,0.201,0.206,0.120,0.077,west-northwest,4.0,No
2024/01/17,07:30,0.149,0.135,0.211,0.201,0.206,0.119,0.077,west-northwest,4.9,No
2024/01/17,07:40,0.148,0.135,0.211,0.200,0.207,0.120,0.077,west,3.2,No
2024/01/17,07:50,0.149,0.136,0.211,0.202,0.207,0.120,0.077,west-northwest,2.4,No
2024/01/17,08:00,0.149,0.134,0.211,0.200,0.207,0.120,0.077,west,1.3,No
2024/01/17,08:10,0.148,0.135,0.210,0.199,0.207,0.121,0.077,-,CALM,No
2024/01/17,08:20,0.149,0.135,0.211,0.200,0.207,0.120,0.078,-,CALM,No
2024/01/17,08:30,0.148,0.135,0.211,0.201,0.208,0.119,0.076,west-northwest,2.4,No
2024/01/17,08:40,0.150,0.135,0.212,0.201,0.206,0.120,0.076,northwest,1.3,No
2024/01/17,08:50,0.149,0.135,0.211,0.200,0.207,0.120,0.076,west-northwest,2.9,No
2024/01/17,09:00,0.148,0.135,0.210,0.201,0.208,0.120,0.077,west,7.0,No
2024/01/17,09:10,0.148,0.135,0.212,0.200,0.207,0.120,0.077,west-northwest,4.9,No
2024/01/17,09:20,0.149,0.135,0.210,0.201,0.207,0.120,0.077,west-northwest,3.3,No
2024/01/17,09:30,0.148,0.134,0.212,0.200,0.206,0.120,0.077,west-northwest,2.7,No
2024/01/17,09:40,0.148,0.134,0.211,0.200,0.207,0.119,0.077,west,2.6,No
2024/01/17,09:50,0.149,0.134,0.210,0.200,0.207,0.120,0.077,west,3.0,No
2024/01/17,10:00,0.149,0.134,0.211,0.201,0.207,0.120,0.076,west-northwest,2.9,No
2024/01/17,10:10,0.149,0.134,0.211,0.201,0.207,0.120,0.076,west-northwest,2.4,No
2024/01/17,10:20,0.150,0.134,0.212,0.200,0.206,0.121,0.077,west,4.5,No
2024/01/17,10:30,0.149,0.134,0.211,0.201,0.206,0.120,0.077,west,3.5,No
2024/01/17,10:40,0.148,0.135,0.210,0.201,0.206,0.121,0.078,west,3.8,No
2024/01/17,10:50,0.149,0.134,0.210,0.200,0.207,0.120,0.077,west,4.2,No
2024/01/17,11:00,0.148,0.134,0.210,0.201,0.206,0.120,0.077,west-northwest,3.8,No
2024/01/17,11:10,0.149,0.135,0.209,0.201,0.207,0.119,0.076,west,4.3,No
2024/01/17,11:20,0.148,0.134,0.210,0.201,0.207,0.120,0.077,west,2.9,No
2024/01/17,11:30,0.147,0.135,0.209,0.200,0.207,0.120,0.077,west-southwest,2.9,No
2024/01/17,11:40,0.148,0.133,0.210,0.200,0.206,0.120,0.077,west-northwest,2.4,No
2024/01/17,11:50,0.148,0.135,0.212,0.201,0.206,0.121,0.077,west,3.4,No
2024/01/17,12:00,0.149,0.135,0.210,0.200,0.206,0.120,0.077,west,3.1,No
2024/01/17,12:10,0.148,0.134,0.211,0.201,0.207,0.120,0.078,west-northwest,2.5,No
2024/01/17,12:20,0.148,0.135,0.210,0.200,0.206,0.120,0.077,northwest,2.3,No
2024/01/17,12:30,0.148,0.133,0.211,0.201,0.206,0.120,0.077,north-northwest,1.5,No
2024/01/17,12:40,0.148,0.135,0.208,0.199,0.206,0.121,0.077,east-southeast,1.3,No
2024/01/17,12:50,0.149,0.135,0.211,0.200,0.209,0.120,0.077,northeast,1.7,No
2024/01/17,13:00,0.148,0.135,0.210,0.202,0.206,0.120,0.077,east-northeast,1.1,No
2024/01/17,13:10,0.148,0.134,0.211,0.202,0.208,0.120,0.078,northeast,0.7,No
2024/01/17,13:20,0.147,0.134,0.211,0.200,0.207,0.121,0.076,west-southwest,2.0,No
2024/01/17,13:30,0.149,0.135,0.211,0.201,0.209,0.121,0.077,west-northwest,1.5,No
2024/01/17,13:40,0.149,0.135,0.212,0.200,0.209,0.119,0.077,west,3.1,No
2024/01/17,13:50,0.148,0.134,0.211,0.202,0.208,0.121,0.077,-,CALM,No
2024/01/17,14:00,0.149,0.134,0.211,0.200,0.206,0.121,0.076,east-southeast,2.4,No
2024/01/17,14:10,0.149,0.134,0.211,0.201,0.207,0.121,0.077,south-southwest,1.0,No
2024/01/17,14:20,0.148,0.135,0.211,0.201,0.208,0.119,0.077,south-southwest,1.6,No
2024/01/17,14:30,0.149,0.134,0.212,0.202,0.207,0.120,0.077,south,2.4,No
2024/01/17,14:40,0.149,0.135,0.211,0.201,0.207,0.120,0.077,southeast,2.4,No
2024/01/17,14:50,0.149,0.134,0.211,0.201,0.208,0.120,0.078,east-southeast,2.2,No
2024/01/17,15:00,0.150,0.135,0.211,0.201,0.208,0.120,0.077,east-southeast,1.2,No
2024/01/17,15:10,0.149,0.135,0.212,0.201,0.207,0.120,0.077,east-southeast,1.4,No
2024/01/17,15:20,0.149,0.135,0.211,0.201,0.210,0.120,0.077,southeast,1.4,No
2024/01/17,15:30,0.149,0.136,0.210,0.201,0.208,0.120,0.077,southeast,1.2,No
2024/01/17,15:40,0.148,0.136,0.212,0.203,0.209,0.120,0.078,-,CALM,No
2024/01/17,15:50,0.150,0.136,0.211,0.201,0.209,0.121,0.077,south-southwest,0.6,No
2024/01/17,16:00,0.149,0.135,0.212,0.202,0.209,0.120,0.077,west-southwest,0.9,No
2024/01/17,16:10,0.148,0.135,0.210,0.203,0.208,0.120,0.077,south-southwest,1.0,No
2024/01/17,16:20,0.149,0.135,0.210,0.202,0.207,0.120,0.077,south,1.6,No
2024/01/17,16:30,0.150,0.135,0.211,0.201,0.206,0.119,0.077,south,1.4,No
2024/01/17,16:40,0.149,0.136,0.212,0.201,0.208,0.121,0.077,south-southeast,1.5,No
2024/01/17,16:50,0.149,0.135,0.211,0.202,0.208,0.121,0.078,south,2.3,No
2024/01/17,17:00,0.149,0.134,0.212,0.201,0.208,0.121,0.077,south,3.9,No
2024/01/17,17:10,0.148,0.135,0.211,0.203,0.208,0.121,0.077,south,3.5,No
2024/01/17,17:20,0.149,0.135,0.211,0.202,0.208,0.122,0.077,south-southwest,3.5,No
2024/01/17,17:30,0.149,0.135,0.211,0.202,0.207,0.121,0.078,south-southwest,3.1,No
2024/01/17,17:40,0.150,0.135,0.211,0.202,0.209,0.121,0.077,south-southwest,3.5,No
2024/01/17,17:50,0.149,0.135,0.212,0.203,0.209,0.120,0.078,southwest,5.0,No
2024/01/17,18:00,0.149,0.135,0.211,0.201,0.207,0.121,0.077,southwest,4.9,No
2024/01/17,18:10,0.150,0.135,0.212,0.203,0.208,0.121,0.077,west-southwest,5.5,No
2024/01/17,18:20,0.149,0.135,0.212,0.202,0.207,0.121,0.078,southwest,5.0,No
2024/01/17,18:30,0.150,0.135,0.212,0.202,0.208,0.120,0.078,west-southwest,5.1,No
2024/01/17,18:40,0.150,0.135,0.211,0.201,0.207,0.121,0.077,west-southwest,5.4,No
2024/01/17,18:50,0.150,0.135,0.211,0.201,0.208,0.121,0.077,west-southwest,5.6,No
2024/01/17,19:00,0.149,0.135,0.212,0.203,0.208,0.121,0.077,west-southwest,6.3,No
2024/01/17,19:10,0.150,0.136,0.211,0.202,0.208,0.121,0.077,southwest,5.7,No
2024/01/17,19:20,0.150,0.135,0.212,0.202,0.208,0.122,0.077,southwest,6.7,No
2024/01/17,19:30,0.149,0.136,0.211,0.202,0.209,0.120,0.078,west-southwest,5.9,No
2024/01/17,19:40,0.150,0.135,0.212,0.202,0.208,0.120,0.078,west-southwest,6.4,No
2024/01/17,19:50,0.150,0.136,0.212,0.202,0.207,0.121,0.077,west-southwest,6.5,No
2024/01/17,20:00,0.150,0.135,0.211,0.201,0.209,0.120,0.077,west-southwest,6.7,No
2024/01/17,20:10,0.150,0.135,0.212,0.202,0.207,0.121,0.078,west-southwest,6.7,No
2024/01/17,20:20,0.151,0.135,0.212,0.202,0.208,0.121,0.078,west-southwest,6.3,No
2024/01/17,20:30,0.149,0.135,0.213,0.203,0.208,0.121,0.077,west-southwest,5.7,No
2024/01/17,20:40,0.149,0.134,0.213,0.202,0.207,0.121,0.078,west-southwest,4.6,No
2024/01/17,20:50,0.150,0.136,0.210,0.203,0.207,0.121,0.078,southwest,4.2,No
2024/01/17,21:00,0.150,0.136,0.211,0.202,0.208,0.121,0.078,southwest,3.7,No
2024/01/17,21:10,0.150,0.136,0.212,0.201,0.208,0.121,0.077,southwest,3.5,No
2024/01/17,21:20,0.149,0.135,0.212,0.202,0.208,0.121,0.078,southwest,2.9,No
2024/01/17,21:30,0.149,0.135,0.212,0.202,0.208,0.121,0.078,south-southwest,2.1,No
2024/01/17,21:40,0.149,0.136,0.212,0.200,0.208,0.120,0.078,south-southwest,2.3,No
2024/01/17,21:50,0.150,0.136,0.212,0.202,0.209,0.121,0.078,south,2.5,No
2024/01/17,22:00,0.150,0.136,0.212,0.202,0.208,0.121,0.078,south,2.5,No
2024/01/17,22:10,0.149,0.135,0.212,0.203,0.208,0.122,0.078,south-southwest,1.6,No
2024/01/17,22:20,0.150,0.135,0.212,0.202,0.208,0.121,0.078,south-southeast,0.9,No
2024/01/17,22:30,0.150,0.135,0.212,0.202,0.207,0.120,0.079,south-southeast,2.0,No
2024/01/17,22:40,0.149,0.135,0.212,0.202,0.209,0.121,0.077,-,CALM,No
2024/01/17,22:50,0.150,0.135,0.212,0.202,0.207,0.121,0.078,-,CALM,No
2024/01/17,23:00,0.150,0.135,0.211,0.202,0.206,0.121,0.078,east,1.3,No
2024/01/17,23:10,0.149,0.136,0.212,0.203,0.207,0.121,0.077,east,1.7,No
2024/01/17,23:20,0.150,0.136,0.213,0.202,0.207,0.121,0.078,east-southeast,2.1,No
2024/01/17,23:30,0.149,0.135,0.213,0.202,0.209,0.121,0.077,east-southeast,0.7,No
2024/01/17,23:40,0.149,0.136,0.212,0.203,0.208,0.122,0.078,north,0.9,No
2024/01/17,23:50,0.149,0.135,0.212,0.201,0.207,0.121,0.078,southwest,1.0,No
